www.pogodaiklimat.ru

Погода и климат >> Архив погоды >> Бельгия >> Коксейде


ПОГОДА в Коксейде

  • Прогноз погоды в Коксейде
  • Монитор погоды в Коксейде

АРХИВ ПОГОДЫ в Коксейде

Время (UTC), дата Ветер
(напр.,м/с)
 
Видим.   Явления Облачность Т
(С)
Тd
(С)
f
(%)
Тe
(С)
Тes
(С)
Комфортность P
(гПа)
Po
(гПа)
Тmin
(С)
Tmax
(С)
R
(мм)
R24
(мм)
S
(см)
01 18.06
{1}
7000 м н/о +13.1 +11.0 87 1017.2 1016.5
02 18.06
{1}
5000 м н/о +11.9 +10.4 91 1016.8 1016.2
03 18.06 нст 1
{1}
5000 м н/о +11.6 +10.4 92 +11 +11 1016.5 1015.7
04 18.06
{1}
5000 м н/о +10.8 +9.6 92 1016.3 1015.7
05 18.06
{1}
8000 м 8/0
[Ac trans Ci fib]
+12.8 +11.6 92 1016.2 1015.6
06 18.06 нст 1
{1}
8000 м 8/0
[Ac trans Ci fib]
+15.5 +13.2 86 +16 +19 1016.2 1015.6 +10.8
07 18.06
{2}
15 км 8/0
[Ac trans Ci fib]
+17.2 +11.5 69 1016.1 1015.3
08 18.06
{2}
20 км 9/0
[Ac trans Ci sp]
+18.0 +12.1 68 1015.8 1015.2
09 18.06 С 2
{3}
20 км 9/1 1500 м
[Sc Ac trans Ci sp]
+20.0 +13.5 66 +23 +29 комфорт 1015.7 1015.0
10 18.06
{3}
20 км 9/1 1500 м
[Sc Ac trans Ci sp]
+20.6 +13.8 65 1015.2 1014.3
11 18.06
{4}
20 км 8/0
[Ac trans Ci sp]
+21.7 +15.1 66 1014.8 1014.2
12 18.06 СВ 3
{5}
16 км 8/0
[Ac trans Ci fib]
+22.7 +16.0 66 +27 +37 душно 1014.1 1013.3
13 18.06 С 4
{6}
16 км 8/1 1350 м
[Cu hum Ac trans Ci fib]
+21.7 +14.1 62 +25 +31 комфорт 1013.7 1013.1
14 18.06 С 5
{7}
14 км 8/1 1350 м
[Cu hum Ac trans Ci fib]
+21.0 +14.2 65 +24 +28 комфорт 1013.2 1012.5
15 18.06 С 5
{8}
16 км н/о +20.0 +14.1 69 +22 +22 комфорт 1012.6 1011.8
16 18.06 СВ 6
{8}
18 км н/о +19.9 +14.7 72 +22 +22 комфорт 1012.0 1011.2
17 18.06 СВ 5
{8}
13 км н/о +19.5 +14.2 71 +21 +21 комфорт 1011.8 1011.2
18 18.06 СВ 4
{8}
13 км н/о +18.7 +14.0 74 +19 +19 1011.7 1011.0 +23.5
19 18.06 СВ 4
{8}
13 км {дождь} н/о +18.0 +14.0 77 +18 +18 1010.8 1010.2
20 18.06 СВ 2
{6}
12 км н/о +16.9 +13.4 80 +17 +17 1010.7 1010.1
21 18.06 В 3
{8}
8000 м {дождь} н/о +15.8 +13.4 86 +15 +15 1010.5 1009.7
22 18.06 В 2
{4}
5000 м н/о +14.6 +13.1 91 +14 +14 1009.7 1009.1
23 18.06 В 2
{4}
3500 м дымка н/о +14.5 +13.1 91 +14 +14 1009.1 1008.3
00 19.06 В 2
{8}
2300 м дымка {дождь} н/о +14.5 +13.2 92 +14 +14 1008.3 1007.6 0.3
01 19.06 З 4
{11}
5000 м н/о +18.5 +15.0 80 +19 +19 1009.7 1009.1
02 19.06 СЗ 7
{12}
8000 м {дождь} н/о +15.4 +13.3 87 +14 +14 1009.1 1008.2
03 19.06 С 3
{12}
14 км {дождь} н/о +15.8 +13.5 86 +15 +15 1008.0 1007.2
04 19.06 ЮВ 3
{8}
20 км слаб. дождь н/о +17.1 +13.4 79 +17 +17 1007.1 1006.3
05 19.06 В 3
{8}
6000 м гроза, ливневой дождь 9/6 450 м
[Cb cap Ac cuf]
+15.0 +14.2 95 +14 +14 1006.3 1005.7
06 19.06 нст 1
{12}
12 км в посл. час крупа {гроза, ливн. осадки} 9/6 450 м
[Cb cap Ac cuf Ci ing]
+16.0 +14.8 93 +17 +17 1006.1 1005.3 +14.1 20
07 19.06 ЮВ 3
{6}
15 км 9/6 1050 м
[Cb cap Ac cuf Ci ing]
+17.4 +15.4 88 +17 +18 1006.5 1005.7
08 19.06 З 6
{12}
15 км 9/6 150 м
[Cb cap Ac cuf Ci ing]
+17.5 +14.4 82 +17 +18 1008.1 1007.3
09 19.06 нст 1
{12}
8000 м в посл. час гроза {ливн. осадки} 9/6 300 м
[Cb cap Ac cuf Ci ing]
+17.2 +15.2 88 +18 +22 1008.0 1007.2
10 19.06
{2}
10 км 9/6 300 м
[Cb cap Ac cuf Ci ing]
+18.6 +15.6 83 1007.7 1007.0
11 19.06
{3}
14 км 9/3 900 м
[Cu Sc Ac As Ci sp]
+19.2 +16.0 82 1007.7 1007.0
12 19.06 нст 1
{12}
15 км 8/3 600 м
[Cu Sc Ac As Ci sp]
+20.9 +16.2 74 +25 +35 комфорт 1007.6 1006.8 3
14 19.06 С 2
{4}
15 км 8/3 800 м
[Cu Sc Ac As Ci sp]
+20.0 +15.5 75 +23 +29 комфорт 1007.5 1006.7
15 19.06 СЗ 5
{7}
12 км н/о +19.1 +15.2 78 +20 +20 1007.6 1006.8
16 19.06 СЗ 4
{8}
18 км н/о +19.0 +14.5 75 +20 +20 1007.7 1006.8
17 19.06 СЗ 5
{9}
12 км н/о +18.1 +14.2 78 +18 +18 1007.5 1006.7
18 19.06 З 5
{9}
13 км н/о +16.8 +13.8 82 +16 +16 1008.1 1007.3 +21.4 3
20 19.06 СЗ 3
{7}
6000 м н/о +16.5 +14.3 87 +16 +16 1009.2 1008.5
21 19.06 Ю 2
{8}
5000 м слаб. морось {дождь} н/о +16.6 +14.9 90 +17 +17 1009.5 1008.7
22 19.06 ЮЗ 3
{5}
3500 м дымка {дождь} н/о +16.2 +14.5 90 +16 +16 1009.7 1009.0
23 19.06 ЮЗ 3
{5}
3900 м дымка н/о +15.3 +13.4 88 +15 +15 1010.0 1009.2
00 20.06 ЮЗ 3
{8}
4800 м дымка {дождь} н/о +14.8 +13.2 90 +14 +14 1010.2 1009.6 0.0
02 20.06 ЮЗ 3
{5}
3500 м дымка н/о +14.1 +12.6 91 +13 +13 1010.2 1009.5
03 20.06 ЮЗ 5
{7}
5000 м н/о +14.5 +12.8 90 +13 +13 1010.5 1009.7
04 20.06 ЮЗ 5
{9}
5000 м н/о +14.5 +12.4 87 +13 +13 1010.5 1009.7
05 20.06 ЮЗ 4
{9}
5000 м дымка 10/10 270 м
[St]
+14.6 +12.8 89 +13 +13 1010.7 1010.0
06 20.06 ЮЗ 4
{9}
6000 м дымка 9/9 270 м
[St]
+15.1 +13.1 88 +14 +14 1011.2 1010.3 +13.8 0.0
08 20.06 З 3
{6}
8000 м в посл. час дождь {морось} 10/9 270 м
[Sc]
+16.3 +14.1 87 +16 +16 1012.0 1011.2
09 20.06 З 5
{8}
20 км {дождь, морось} 8/6 420 м
[Cu Sc Ac As Ci fib]
+16.9 +13.5 80 +16 +18 1012.2 1011.6
11 20.06 З 6
{9}
20 км 6/5 540 м
[Cu Sc Ac As Ci fib]
+16.2 +13.4 83 +15 +18 1013.2 1012.6
12 20.06 З 7
{10}
20 км 5/5 600 м
[Cu Sc Ac As Ci fib]
+17.7 +8.5 55 +17 +19 1013.7 1013.1 0.0
13 20.06 З 7
{11}
20 км 6/5 1050 м
[Cu Sc Ac As Ci fib]
+17.9 +9.6 58 +17 +19 1014.1 1013.2
14 20.06 З 5
{10}
20 км 6/4 1050 м
[Cu Sc Ac trans Ci fib]
+18.7 +7.8 49 +19 +23 1014.2 1013.6
15 20.06 ЮЗ 6
{11}
20 км н/о +19.2 +9.6 54 +20 +20 1014.5 1013.7
16 20.06 ЮЗ 7
{10}
15 км н/о +18.5 +8.5 52 +18 +18 1014.7 1014.0
17 20.06 ЮЗ 6
{10}
20 км н/о +17.8 +8.2 53 +17 +17 1015.0 1014.2
18 20.06 ЮЗ 6
{11}
19 км н/о +16.9 +7.6 54 +16 +16 1015.2 1014.6 +19.6 0.0
19 20.06 ЮЗ 5
{9}
20 км н/о +15.8 +8.1 60 +15 +15 1015.7 1015.1
20 20.06 ЮЗ 4
{8}
20 км н/о +13.7 +8.3 70 +12 +12 1016.2 1015.3
21 20.06 ЮЗ 4
{9}
18 км н/о +12.5 +9.0 79 +11 +11 1016.6 1015.8
22 20.06 ЮЗ 4
{5}
13 км н/о +11.6 +9.5 87 +9 +9 1016.7 1016.1
23 20.06 ЮЗ 2
{5}
11 км н/о +10.8 +9.4 91 +9 +9 1017.0 1016.2
00 21.06 ЮЗ 2
{9}
8000 м н/о +10.6 +9.5 93 +9 +9 1017.2 1016.6
01 21.06
{4}
6000 м н/о +9.9 +9.0 94 1017.5 1016.7
02 21.06 ЮЗ 3
{4}
5000 м н/о +10.1 +9.3 95 +8 +8 1017.6 1016.8
03 21.06 ЮЗ 2
{5}
5000 м н/о +10.1 +9.2 94 +8 +8 1017.7 1017.0
04 21.06 ЮЗ 2
{3}
6000 м н/о +9.9 +9.2 95 +8 +8 1018.0 1017.2
05 21.06 ЮЗ 3
{4}
10 км 3/1 480 м
[Cu hum Ci fib]
+11.6 +10.6 94 +10 +10 1018.2 1017.5
06 21.06 ЮЗ 3
{5}
15 км 3/1 480 м
[Cu hum Ci fib]
+13.3 +11.7 90 +12 +14 1018.7 1018.0 +9.3
07 21.06 З 5
{8}
20 км 4/3 480 м
[Cu Sc Ci fib]
+15.3 +9.6 69 +14 +16 1019.2 1018.5
08 21.06 З 6
{9}
20 км 1/1 600 м
[Cu Sc]
+15.8 +7.6 58 +15 +18 1019.7 1019.0
09 21.06 З 6
{9}
20 км 3/3 720 м
[Cu Sc Ci fib]
+16.6 +7.3 54 +16 +19 1020.1 1019.2
10 21.06 З 6
{9}
30 км 4/4 960 м
[Cu Sc Ci fib]
+16.7 +8.4 58 +16 +19 1020.3 1019.7
11 21.06 СЗ 6
{10}
30 км 4/4 960 м
[Cu Sc Ci fib]
+17.6 +9.9 61 +17 +21 1020.6 1019.8
12 21.06 СЗ 6
{10}
30 км 4/4 960 м
[Cu Sc Ci fib]
+17.2 +7.4 52 +16 +20 1020.8 1020.2
13 21.06 СЗ 5
{9}
30 км 3/3 960 м
[Cu hum]
+17.7 +8.0 53 +17 +23 1021.0 1020.2
14 21.06 СЗ 4
{7}
30 км 3/3 1140 м
[Cu hum]
+17.8 +7.4 51 +18 +24 1021.2 1020.5
15 21.06 СЗ 2
{9}
30 км 3/3 1140 м
[Cu hum]
+17.7 +8.2 54 +18 +26 1021.3 1020.7
16 21.06 СЗ 3
{5}
17 км н/о +17.7 +9.6 59 +18 +18 1021.6 1020.8
17 21.06 СЗ 3
{4}
16 км н/о +17.2 +9.0 59 +17 +17 1021.7 1021.0
18 21.06 СЗ 2
{9}
14 км н/о +16.6 +9.9 65 +17 +17 1022.0 1021.2 +18.2
19 21.06 СЗ 2
{4}
20 км н/о +15.6 +10.5 72 +16 +16 1022.0 1021.2
20 21.06
{3}
17 км н/о +14.0 +10.9 82 1022.5 1021.7
21 21.06 нст 1
{4}
16 км н/о +13.0 +10.5 85 +13 +13 1022.8 1022.1
22 21.06
{1}
13 км н/о +12.6 +10.5 87 1023.2 1022.6
23 21.06
{2}
6000 м н/о +10.6 +9.2 91 1023.5 1022.7
00 22.06 нст 1
{4}
5000 м н/о +11.1 +9.9 92 +11 +11 1023.5 1022.7
01 22.06
{1}
7000 м н/о +10.1 +8.9 92 1023.2 1022.5
02 22.06
{1}
2900 м туман н/о +9.5 +8.5 93 1023.1 1022.3
03 22.06 нст 1
{1}
3100 м дымка {туман} н/о +9.0 +8.0 93 +8 +8 1023.1 1022.2
04 22.06
{1}
2800 м дымка н/о +9.7 +8.2 90 1023.1 1022.2
05 22.06
{1}
6000 м н/о +11.9 +10.1 89 1023.1 1022.3
06 22.06 В 2
{3}
8000 м {туман} н/о +14.1 +11.5 84 +14 +14 1023.2 1022.5 +9.0
07 22.06 В 3
{5}
16 км н/о +16.1 +11.2 73 +16 +16 1023.1 1022.3
08 22.06 В 4
{5}
19 км н/о +17.6 +10.5 63 +17 +17 1022.7 1022.0
09 22.06 В 3
{7}
14 км н/о +18.7 +10.3 58 +19 +19 1022.3 1021.7
10 22.06 СВ 2
{6}
11 км н/о +19.6 +9.9 53 +21 +21 комфорт 1022.2 1021.3
11 22.06 С 6
{9}
17 км н/о +18.2 +11.5 65 +18 +18 1022.2 1021.5
12 22.06 СВ 6
{9}
19 км 4/3 <50 м
[Cu hum Ci fib]
+19.4 +11.8 61 +20 +25 1022.1 1021.3
13 22.06 С 7
{9}
19 км 4/3 <50 м
[Cu hum Ci fib]
+19.9 +12.9 64 +21 +24 комфорт 1021.6 1020.8
14 22.06 СВ 6
{10}
17 км н/о +19.4 +12.1 63 +20 +20 1021.3 1020.7
15 22.06 СВ 7
{11}
12 км н/о +19.1 +12.3 65 +20 +20 1021.0 1020.2
16 22.06 СВ 7
{11}
17 км н/о +18.7 +11.7 64 +19 +19 1020.2 1019.6
17 22.06 СВ 7
{10}
16 км н/о +18.5 +11.6 64 +18 +18 1020.1 1019.2
18 22.06 СВ 7
{11}
16 км н/о +17.9 +11.7 67 +17 +17 1020.0 1019.2 +20.1
19 22.06 СВ 6
{9}
18 км н/о +17.1 +11.8 71 +16 +16 1019.8 1019.2
20 22.06 СВ 4
{8}
13 км н/о +16.0 +12.5 80 +15 +15 1020.1 1019.3
21 22.06 СВ 2
{9}
11 км н/о +15.1 +12.8 86 +15 +15 1020.5 1019.7
22 22.06 СВ 3
{5}
8000 м н/о +15.4 +13.5 88 +15 +15 1020.0 1019.2
23 22.06 СВ 3
{4}
5000 м н/о +15.1 +13.7 91 +14 +14 1019.7 1019.1
00 23.06 СВ 2
{9}
4100 м дымка н/о +14.6 +13.4 93 +14 +14 1019.5 1018.7
01 23.06 СВ 2
{3}
6000 м н/о +14.6 +12.8 89 +14 +14 1019.2 1018.6
02 23.06 В 2
{3}
4600 м дымка н/о +14.0 +12.0 88 +13 +13 1019.1 1018.3
03 23.06 нст 1
{4}
3000 м дымка н/о +13.3 +11.7 90 +13 +13 1018.7 1018.0
04 23.06
{2}
2500 м дымка н/о +12.7 +11.3 91 1018.7 1018.0
05 23.06 В 2
{3}
3900 м дымка н/о +14.6 +13.1 91 +14 +14 1018.7 1018.0
06 23.06 В 3
{4}
6000 м н/о +16.3 +14.0 86 +16 +16 1018.3 1017.7 +12.6
07 23.06 В 3
{4}
7000 м н/о +18.7 +14.8 78 +20 +20 1018.2 1017.3
08 23.06 В 3
{4}
10 км н/о +20.8 +15.4 71 +24 +24 комфорт 1018.1 1017.3
09 23.06 В 3
{5}
11 км н/о +22.9 +16.2 66 +27 +27 душно 1017.8 1017.2
10 23.06 В 4
{6}
8000 м н/о +24.6 +16.5 61 +28 +28 душно 1017.6 1016.8
11 23.06 В 4
{7}
7000 м н/о +25.8 +16.5 56 +29 +29 душно 1017.2 1016.6
12 23.06 В 5
{7}
17 км н/о +26.4 +16.0 53 +30 +30 душно 1016.7 1016.1
13 23.06 СВ 3
{7}
10 км н/о +27.2 +15.9 50 +30 +30 душно 1016.5 1015.7
14 23.06 С 4
{6}
11 км н/о +25.3 +18.4 66 +30 +30 душно 1016.1 1015.3
15 23.06 С 4
{7}
11 км н/о +25.3 +18.1 64 +30 +30 душно 1015.7 1015.0
16 23.06 СВ 3
{6}
12 км 6/1 1350 м
[Cu hum Ci fib]
+24.5 +17.6 65 +29 +33 душно 1015.0 1014.2
17 23.06 С 3
{6}
15 км н/о +24.0 +17.6 67 +28 +28 душно 1015.0 1014.2
18 23.06 нст 1
{7}
10 км н/о +24.2 +18.5 70 +29 +29 душно 1015.0 1014.2 +27.4
19 23.06 С 2
{2}
10 км н/о +22.7 +18.3 76 +28 +28 душно 1015.0 1014.2
20 23.06
{2}
9000 м н/о +22.7 +18.7 78 1015.2 1014.5
21 23.06 ЮВ 2
{2}
12 км н/о +22.4 +18.0 76 +27 +27 душно 1015.7 1015.1
22 23.06 В 2
{2}
14 км н/о +21.7 +17.6 78 +26 +26 душно 1016.0 1015.2
23 23.06 В 2
{3}
10 км н/о +20.8 +17.2 80 +25 +25 комфорт 1016.0 1015.2
00 24.06 ЮВ 2
{3}
8000 м н/о +20.0 +16.9 82 +23 +23 комфорт 1016.2 1015.5
01 24.06 ЮВ 2
{3}
9000 м н/о +19.2 +16.3 83 +21 +21 комфорт 1016.0 1015.2
02 24.06 В 2
{3}
6000 м н/о +18.5 +16.4 88 +20 +20 1015.6 1014.8
03 24.06 В 2
{3}
6000 м н/о +18.1 +15.9 87 +19 +19 1015.3 1014.7
04 24.06
{3}
7000 м н/о +17.6 +15.5 87 1015.3 1014.7
05 24.06
{4}
10 км 9/0
[Ac trans Ci sp]
+19.6 +16.6 83 1015.5 1014.7
06 24.06 ЮВ 2
{4}
20 км 9/0
[Ac trans Ci sp]
+21.3 +17.0 76 +25 +27 комфорт 1015.6 1014.8 +17.2
07 24.06 ЮВ 3
{4}
20 км 9/0
[Ac trans Ci sp]
+22.9 +17.8 73 +28 +32 душно 1015.8 1015.2
08 24.06 ЮВ 3
{5}
20 км 8/0
[Ac trans Ci sp]
+24.7 +18.4 68 +29 +34 душно 1016.0 1015.2
09 24.06 ЮВ 3
{6}
20 км 8/0
[Ac trans Ci sp]
+26.1 +18.5 63 +31 +38 очень
душно
1016.0 1015.2
10 24.06 Ю 3
{6}
20 км 8/0
[Ac trans Ci sp]
+27.5 +19.6 62 +33 +42 очень
душно
1016.2 1015.5
11 24.06 Ю 3
{8}
20 км 8/1 1080 м
[Cu hum Ac trans Ci sp]
+28.7 +20.1 60 +35 +43 очень
душно
1016.7 1016.0
12 24.06 СЗ 2
{8}
20 км 9/1 1080 м
[Cu med, cong Ac As Ci sp]
+25.8 +18.2 63 +30 +39 душно 1017.3 1016.7
13 24.06 СЗ 4
{7}
20 км 9/1 1080 м
[Cu med, cong Ac As Ci sp]
+23.4 +18.1 72 +29 +35 душно 1017.7 1017.0
14 24.06 З 6
{9}
20 км 9/1 1080 м
[Cu med, cong Ac As Ci sp]
+24.3 +15.8 59 +27 +30 жарко 1018.0 1017.2
15 24.06 СЗ 4
{9}
20 км 9/1 1050 м
[Cu med, cong Ac As Ci sp]
+23.6 +16.3 64 +27 +31 жарко 1017.7 1017.1
16 24.06 СЗ 3
{5}
20 км 9/1 1050 м
[Cu med, cong Ac As Ci sp]
+21.2 +15.4 69 +24 +27 комфорт 1017.1 1016.3
17 24.06 З 2
{5}
20 км 9/0
[Ac As]
+21.2 +15.1 68 +24 +26 комфорт 1017.7 1017.0
18 24.06 СЗ 2
{9}
10 км 9/0
[Ac As]
+19.3 +15.4 78 +22 +22 комфорт 1017.7 1017.0 +28.8
19 24.06
{3}
12 км 9/0
[Ac As Ci sp]
+19.9 +15.3 75 1017.7 1017.0
20 24.06
{3}
8000 м 9/0
[Ac As Ci sp]
+18.5 +15.3 82 1018.2 1017.3
21 24.06 нст 1
{4}
6000 м 8/0
[Ac As Ci sp]
+17.7 +15.2 85 +19 +19 1018.1 1017.3
22 24.06 С 2
{3}
6000 м 6/0
[Ac As Ci fib]
+17.5 +14.9 85 +18 +18 1018.0 1017.2
23 24.06
{3}
8000 м н/о +17.8 +15.0 84 1017.7 1017.1
00 25.06 С 3
{4}
10 км н/о +17.6 +14.7 83 +18 +18 1017.2 1016.6
01 25.06 СВ 3
{6}
13 км н/о +18.2 +14.4 78 +19 +19 1016.5 1015.7

 

Местоположение метеостанции Коксейде (Бельгия): широта 51.08 долгота 2.65 высота над уровнем моря 9 м.

В архиве по умолчанию представлена погода в Коксейде за последнюю неделю. Архивные данные за месяц целиком и за предыдущие месяцы, начиная с января 2011 года, Вы можете получить, выбрав интересующий диапазон дат из раскрывающегося списка и нажав кнопку "Ввод!".


*Определитесь, кто Вы:
робот инопланетянин человек

Внимание! Время в таблицах - всемирное. Для получения местного времени необходимо прибавить поправку, которая равна 1 ч.

Смотрите также архив погоды в соседних городах и на ближайших метеорологических станциях:

Погода в Остенде (Бельгия) (20 км)
Погода в Дюнкерке (Франция) (23 км)
Погода в Бейтеме (Бельгия) (39 км)
Погода в Зебрюгге (Бельгия) (47 км)
Погода в Цадзанде (Нидерланды) (61 км)
Погода на Отмели Vlakte Van Raan (Нидерланды) (63 км)
Погода в Лилле (Франция) (65 км)
Погода в Семмерзэйке (Бельгия) (73 км)
Погода в Флиссингене (Нидерланды) (78 км)
Погода в Хуфдплате (Нидерланды) (78 км)

Пояснения к столбцам:

Ветер - указаны скорость ветра в м/с - средняя за 10 мин, порывы в срок и между сроками (в фигурных скобках) и направление, откуда дует ветер: С - северный, СВ - северо-восточный, В - восточный, ЮВ - юго-восточный, Ю - южный, ЮЗ - юго-западный, З - западный, СЗ - северо-западный.
Видимость - горизонтальная дальность видимости в метрах или километрах. При видимости от 1 до 10 км при отсутствии осадков обычно наблюдается дымка, при ухудшении видимости до 1 км и менее - туман. В сухую погоду видимость может ухудшаться дымом, пылью или мглою.
Явления - указаны атмосферные явления, наблюдавшиеся в срок или в последний час перед сроком; фигурными скобками обозначены явления, наблюдавшиеся между сроками (за 1-3 часа до срока); квадратными скобками обозначены град или гололедные отложения с указанием их диаметра в мм.
Облачность - указаны через наклонную черту общая и нижняя облачность в баллах и высота нижней границы облаков в метрах; квадратными скобками обозначены формы облаков: Ci - перистые, Cs - перисто-слоистые, Cc - перисто-кучевые, Ac - высококучевые, As - высокослоистые, Sc - слоисто-кучевые, Ns - слоисто-дождевые, Cu - кучевые, Cb - кучево-дождевые. Подробнее классификацию облаков см. в Атласе облаков (PDF).
T - Температура воздуха - температура, измеренная на высоте 2 м над землей.
Td - Температура точки росы - температура, при понижении до которой содержащийся в воздухе водяной пар достигнет насыщения.
f - Относительная влажность воздуха - влажноcть воздуха, измеренная на высоте 2 м над землей.
Te - Эффективная температура - температура, которую ощущает одетый по сезону человек в тени. Характеристика душности погоды. При расчете учитывается влияние влажности воздуха и скорости ветра на теплоощущения человека.
Tes - Эффективная температура на солнце - температура, которую ощущает человек, с поправкой на солнечный нагрев. Характеристика знойности погоды. Зависит от высоты солнца над горизонтом, облачности и скорости ветра. Ночью, в пасмурную погоду, а также при ветре 12 м/с и более поправка равна нулю.
P - Атмосферное давление - приведенное к уровню моря атмосферное давление.
Po - Атмосферное давление - измеренное на уровне метеостанции атмосферное давление.
Tmin - Минимальная температура - минимум температуры воздуха на высоте 2 м над землей.
Tmax - Максимальная температура - максимум температуры воздуха на высоте 2 м над землей.
R - Количество осадков - Количество выпавших осадков за период времени, мм. При наведении курсора мыши на число - период времени, за который выпало указанное количество осадков.
R24 - Количество осадков - Количество выпавших осадков за 24 часа, мм.
S - Снежный покров - Высота снежного покрова, см. При наведении курсора мыши на число - состояние снежного покрова и степень покрытия местности в баллах.